IW0HP-3 Weather Reports


time (UTC)temp
C
wind
direction
speed
KPH
gust
KPH
rain 1hr
cm
rain 24hr
cm
rain mn
cm
humidity
%
barometer
mb
20260504002425 15 0.0 0.0 0.00 0.00 0.00 67 1019.7
20260504000420 15 0.0 0.0 0.00 0.00 0.00 67 1019.8
20260503230406 16 0.0 0.0 0.00 0.00 0.00 67 1020.3
20260503224402 16 0.0 0.0 0.00 0.00 0.00 66 1020.4
20260503220352 16 0.0 0.0 0.00 0.00 0.00 65 1020.4
20260503212343 17 0.0 0.0 0.00 0.00 0.00 64 1020.2
20260503210338 17 0.0 0.0 0.00 0.00 0.00 64 1020.0
20260503204333 17 0.0 0.0 0.00 0.00 0.00 63 1020.1
20260503202328 17 0.0 0.0 0.00 0.00 0.00 63 1020.0
20260503200323 17 0.0 0.0 0.00 0.00 0.00 62 1019.9
20260503190309 18 0.0 0.0 0.00 0.00 0.00 60 1019.2
20260503184304 18 0.0 0.0 0.00 0.00 0.00 58 1019.0
20260503182259 19 0.0 0.0 0.00 0.00 0.00 53 1018.5
20260503180254 20 0.0 0.0 0.00 0.00 0.00 48 1018.3
20260503174249 22 0.0 0.0 0.00 0.00 0.00 42 1018.3
20260503172242 26 0.0 0.0 0.00 0.00 0.00 36 1018.6
20260503170237 23 0.0 0.0 0.00 0.00 0.00 42 1018.0
20260503150206 21 0.0 0.0 0.00 0.00 0.00 40 1019.0
20260503140151 21 0.0 0.0 0.00 0.00 0.00 38 1019.8
20260503130137 21 0.0 0.0 0.00 0.00 0.00 40 1020.0
20260503120123 21 0.0 0.0 0.00 0.00 0.00 39 1020.4
20260503053953 13 0.0 0.0 0.00 0.00 0.00 56 1021.9
20260503051947 13 0.0 0.0 0.00 0.00 0.00 57 1021.9
20260503045943 13 0.0 0.0 0.00 0.00 0.00 57 1021.8
20260503041933 13 0.0 0.0 0.00 0.00 0.00 59 1021.6
20260503035929 13 0.0 0.0 0.00 0.00 0.00 58 1021.5
20260503033924 12 0.0 0.0 0.00 0.00 0.00 57 1021.4
20260503031919 13 0.0 0.0 0.00 0.00 0.00 56 1021.4
20260503025914 13 0.0 0.0 0.00 0.00 0.00 56 1021.4
20260503023909 13 0.0 0.0 0.00 0.00 0.00 55 1021.5
20260503021905 13 0.0 0.0 0.00 0.00 0.00 55 1021.4
20260503015900 13 0.0 0.0 0.00 0.00 0.00 55 1021.5
20260503013855 13 0.0 0.0 0.00 0.00 0.00 54 1021.6
20260503011850 13 0.0 0.0 0.00 0.00 0.00 54 1021.5
20260503005846 13 0.0 0.0 0.00 0.00 0.00 55 1021.7
20260503003841 14 0.0 0.0 0.00 0.00 0.00 55 1021.8